Regional Weather Roundup
Issued by NWS

Home | Current Version | Previous Version | Text Only | Print | Product List | Glossary On
Versions: 1 2 3 4 5 6 7 8 9 10 11 12 13 14 15 16 17 18 19 20 21 22 23 24 25 26 27 28 29 30 31 32 33 34 35 36 37 38 39 40 41 42 43 44 45 46 47 48 49 50
450
ASUS43 KOAX 280502
RWRNE

WEATHER ROUNDUP FOR NEBRASKA
NATIONAL WEATHER SERVICE OMAHA NE
1200 AM CDT WED JUN 28 2017

NOTES: SATELLITE DATA IS BEING USED TO AUGMENT CLOUD COVER ABOVE
       12000 FEET.
       "FAIR" INDICATES FEW OR NO CLOUDS BELOW 12,000 FEET WITH NO
       SIGNIFICANT WEATHER AND/OR OBSTRUCTIONS TO VISIBILITY.

  * THESE STATIONS DO NOT REPORT WEATHER SUCH AS RAIN...SNOW OR FOG.

NEZ001>004-019>022-054>056-280600-
NEBRASKA PANHANDLE

CITY           SKY/WX    TMP DP  RH WIND       PRES   REMARKS
SCOTTSBLUFF    CLOUDY    61  52  72 NW8       29.82R
ALLIANCE       CLOUDY    63  55  75 NW12      29.79R
CHADRON        CLOUDY    64  53  67 W12       29.76R
GORDON         FAIR      62  55  79 CALM      29.75F
KIMBALL        PTCLDY    64  46  50 N10       29.89R
SIDNEY         CLOUDY    60  53  77 N8        29.84F
$$

NEZ057>060-069>072-079>082-280600-
SOUTHWEST NEBRASKA

CITY           SKY/WX    TMP DP  RH WIND       PRES   REMARKS
NORTH PLATTE   CLOUDY    70  58  65 N10       29.78R
IMPERIAL       CLOUDY    71  49  45 S6        29.77R
LEXINGTON      CLOUDY    66  62  86 NE7       29.74R
MCCOOK         CLOUDY    79  54  41 SW15G23   29.70R
OGALLALA       CLOUDY    70  56  60 NE12      29.77R
$$

NEZ005>010-023>029-035>040-094-280600-
NORTH CENTRAL NEBRASKA

CITY           SKY/WX    TMP DP  RH WIND       PRES   REMARKS
VALENTINE      LGT RAIN  69  54  58 S6        29.72R
AINSWORTH      CLOUDY    66  58  74 N13       29.71F
BROKEN BOW     CLOUDY    66  60  81 CALM      29.74R
O`NEILL        LGT RAIN  73  63  70 SW14G21   29.66R
ORD            CLOUDY    68  59  73 SW5G16    29.71F
THEDFORD       CLOUDY    65  60  83 NW15G26   29.78F
$$

NEZ041-046>049-061>064-073>077-083>087-280600-
SOUTH CENTRAL NEBRASKA

CITY           SKY/WX    TMP DP  RH WIND       PRES   REMARKS
GRAND ISLAND   TSTM      64  64 100 NW5G25    29.82R FOG
AURORA         TSTM      69  63  79 NW30G55   29.85R
HASTINGS       TSTM      68  62  81 NW21G35   29.79R
HEBRON         CLOUDY    80  67  63 S21G30    29.72F
HOLDREGE       CLOUDY    68  63  84 E12       29.73R
KEARNEY *      CLOUDY    64  61  88 NE3       29.76F
$$

NEZ011>018-030>034-042>045-280600-
NORTHEAST NEBRASKA

CITY           SKY/WX    TMP DP  RH WIND       PRES   REMARKS
NORFOLK        CLOUDY    76  66  71 S28G36    29.65F
ALBION         TSTM      68  61  76 W10G22    29.74R
BLAIR          PTCLDY    75  65  71 S20G28    29.74F
FREMONT        CLOUDY    75  65  70 SE18G30   29.72S
TEKAMAH        MOCLDY    75  64  68 SE21G30   29.70F
WAYNE          CLOUDY    75  68  77 S24G33    29.64F
$$

NEZ050>053-065>068-078-088>093-280600-
SOUTHEAST NEBRASKA

CITY           SKY/WX    TMP DP  RH WIND       PRES   REMARKS
LINCOLN        MOCLDY    77  65  66 S20G30    29.73F
OMAHA EPPLEY   MOCLDY    75  65  70 SE22G28   29.75F
BEATRICE       PTCLDY    76  65  68 S21G29    29.76R
FALLS CITY     CLOUDY    74  66  76 SE15      29.80F
NEBRASKA CITY  CLOUDY    73  69  87 S17       29.79F
PLATTSMOUTH    CLOUDY    74  65  74 SE16G29   29.77F
$$

NEZ044-045-051>053-067-280600-
OMAHA AREA

CITY           SKY/WX    TMP DP  RH WIND       PRES   REMARKS
OMAHA EPPLEY   MOCLDY    75  65  70 SE22G28   29.75F
BLAIR          PTCLDY    75  65  71 S20G28    29.74F
FREMONT        CLOUDY    75  65  70 SE18G30   29.72S
MILLARD        PTCLDY    76  68  76 SE14G24   29.75F
OFFUTT AFB     PTCLDY    75  65  71 SE18      29.76F
PLATTSMOUTH    CLOUDY    74  65  74 SE16G29   29.77F
WAHOO          FAIR      74  64  71 SE16G24   29.73S
$$




USA.gov is the U.S. government's official web portal to all federal, state and local government web resources and services.